Regional Weather Roundup
Issued by NWS

Home | Current Version | Previous Version | Graphics & Text | Print | Product List | Glossary On
Versions: 1 2 3 4 5 6 7 8 9 10 11 12 13 14 15 16 17 18 19 20 21 22 23 24 25 26 27 28 29 30 31 32 33 34 35 36 37 38 39 40 41 42 43 44 45 46 47 48 49 50
000
ASUS45 KBOU 020907
RWRCO

WEATHER ROUNDUP FOR COLORADO
NATIONAL WEATHER SERVICE DENVER/BOULDER CO
300 AM MDT SAT MAY 02 2015

NOTE: "FAIR" INDICATES FEW OR NO CLOUDS BELOW 12000 FEET WITH NO
SIGNIFICANT WEATHER AND/OR OBSTRUCTIONS TO VISIBILITY.

COZ001>005-013-030-031-021000-
...NORTHWEST COLORADO...

CITY           SKY/WX    TMP DP  RH WIND       PRES   REMARKS
CRAIG          PTCLDY    41  35  79 SE5       30.09F
HAYDEN         PTCLDY    43  34  70 SE12      30.10F
MEEKER         PTCLDY    44  35  70 E7        30.10F
MOUNT WERNER   NOT AVBL
STEAMBOAT SPGS PTCLDY    40  34  80 CALM      30.13S
WALDEN         CLEAR     34  30  86 SE8       30.16F WCI  27
$$

COZ006>008-011-021000-
...WEST CENTRAL VALLEYS...

CITY           SKY/WX    TMP DP  RH WIND       PRES   REMARKS
GRAND JUNCTION MOCLDY    57  39  51 NE8       30.02R
MONTROSE       CLOUDY    53  33  46 SE8       30.08F
EAGLE          MOCLDY    45  37  76 CALM      30.16F
RIFLE          MOCLDY    50  36  58 SW3       30.07F
DELTA          CLOUDY    53  37  54 NE8       30.05F
NUCLA          CLOUDY    52  28  40 E6        30.11S
$$

COZ017>023-064>068-021000-
...SOUTHWEST COLORADO...

CITY           SKY/WX    TMP DP  RH WIND       PRES   REMARKS
DURANGO        PTCLDY    48  27  44 E3        30.12F
CORTEZ         CLEAR     45  30  55 E3        30.08F
PAGOSA SPRINGS PTCLDY    42  26  53 CALM      30.19F
TELLURIDE      CLOUDY    44  26  50 SE7       30.27F
WOLF CREEK PAS NOT AVBL
$$

COZ009-010-012-014-032>034-037-058>063-021000-
...CENTRAL COLORADO...

CITY           SKY/WX    TMP DP  RH WIND       PRES   REMARKS
ASPEN          MOCLDY    42  31  64 S9        30.17F
BUENA VISTA    NOT AVBL
COPPER MTN     PTCLDY    37  23  56 SW7       30.36F
BERTHOUD PASS  FAIR      32  23  69 W31G40    30.34F WCI  17
COTTONWOOD PAS PTCLDY    45  28  53 W3        30.29F
GUNNISON       MOCLDY    43  30  61 N6        30.23F
KREMMLING      MOCLDY    34  32  93 CALM      30.20F
LEADVILLE      PTCLDY    28  26  92 CALM      30.28F
MONARCH PASS   MOCLDY    36  27  69 W13       30.48F
SALIDA         PTCLDY    42  36  81 W7        30.29S
SUNLIGHT       MOCLDY    41  28  60 CALM      30.34F
WILKERSON PASS PTCLDY    34  32  93 SW7       30.36F WCI  28
$$

COZ069>075-021000-
...SAN LUIS VALLEY/SANGRE DE CRISTO MOUNTAINS...

CITY           SKY/WX    TMP DP  RH WIND       PRES   REMARKS
ALAMOSA        MOCLDY    42  33  70 SE5       30.17F
LA VETA PASS   PTCLDY    41  30  65 MISG      30.29F
SAGUACHE       MOCLDY    45  30  57 N9        30.20F
$$

COZ035-036-038>040-021000-
...NORTHERN COLORADO FRONT RANGE...

CITY           SKY/WX    TMP DP  RH WIND       PRES   REMARKS
DENVER INTL AP MOCLDY    53  43  68 SW16      30.01F
DMNS CITY PARK   N/A     51  42  72 S3        30.01F
AURORA         MOCLDY    50  43  78 S10       30.03F
FRONT RANGE AP PTCLDY    54  45  71 SW13      30.02F
ERIE MUNI ARPT PTCLDY    46  44  91 CALM      30.00F
BOULDER MUN AP PTCLDY    50  45  81 CALM      30.00F
CENTENNIAL     MOCLDY    53  42  66 SW13      30.03F
BROOMFIELD     PTCLDY    54  37  54 CALM      30.03F
FORT COLLINS   MOCLDY    46  45  93 N3        30.01F
LONGMONT       MOCLDY    48  43  84 CALM      30.02F
$$

COZ041-046-047-076>085-087-088-021000-
...PIKES PEAK/PALMER DIVIDE AND SOUTHERN FOOTHILLS...

CITY           SKY/WX    TMP DP  RH WIND       PRES   REMARKS
COLO. SPRINGS  MOCLDY    44  40  85 NE3       30.09F
A. F. ACADEMY  PTCLDY    42  42  99 N7        30.09F
ELLICOTT       PTCLDY   N/A N/A N/A VRB7      30.07F
FALCON         PTCLDY    46  41  83 W8        30.12F
FORT CARSON    PTCLDY    46  41  84 NE3       30.06F
LIMON          PTCLDY    41  40  96 N6        30.03F
MONUMENT HILL  MOCLDY    46  36  66 SW6       30.10F
TRINIDAD       MOCLDY    49  44  83 W10       30.08F
$$

COZ042>045-048>051-090-091-021000-
...NORTHEAST COLORADO...

CITY           SKY/WX    TMP DP  RH WIND       PRES   REMARKS
GREELEY ARPT   PTCLDY    45  39  81 CALM      30.00F
AKRON          PTCLDY    52  47  83 SW13      29.98F
BURLINGTON     MOCLDY    52  47  83 SW13      30.00F
WRAY           CLEAR     51  48  89 SW7       29.97F
STERLING       PTCLDY    46  46 100 SW6       29.95F
HOLYOKE        NOT AVBL
FORT MORGAN    PTCLDY    47  44  91 W6        29.99F
$$

COZ086-089-092>099-021000-
...SOUTHEAST COLORADO...

CITY           SKY/WX    TMP DP  RH WIND       PRES   REMARKS
PUEBLO         PTCLDY    50  49  96 NW6       30.04F
LA JUNTA       PTCLDY    52  46  80 NW8       30.02F
LAMAR          MOCLDY    48  48 100 NW5       29.99F FOG
SPRINGFIELD      N/A     56  44  64 S14       30.02F
$$



USA.gov is the U.S. government's official web portal to all federal, state and local government web resources and services.